N9879Q KSBN-

Flight info

Callsign N9879Q
Flight time N/A
Altitude VFR
Route PATTERN
Aircraft C172/L-DOV/C

Departure

Time 2026-05-08 23:55
Airport South Bend International Airport (KSBN)

Arrival

Time N/A
Airport -
Time Latitude Longitude Altitude Speed Heading
2026-05-08 23:52 41.70243 -86.30545 766 ft 0 kts 311°
2026-05-08 23:52 41.70261 -86.30550 766 ft 4 kts
2026-05-08 23:52 41.70320 -86.30498 768 ft 16 kts 51°
2026-05-08 23:53 41.70374 -86.30388 766 ft 11 kts 55°
2026-05-08 23:53 41.70417 -86.30363 766 ft 5 kts 354°
2026-05-08 23:53 41.70460 -86.30378 767 ft 10 kts 313°
2026-05-08 23:53 41.70466 -86.30612 770 ft 48 kts 266°
2026-05-08 23:54 41.70443 -86.31202 835 ft 73 kts 261°
2026-05-08 23:54 41.70416 -86.31894 1026 ft 72 kts 276°
2026-05-08 23:54 41.70413 -86.32557 1221 ft 72 kts 269°
2026-05-08 23:55 41.69797 -86.33306 1483 ft 89 kts 185°
2026-05-08 23:55 41.69279 -86.33384 1709 ft 80 kts 186°
2026-05-08 23:55 41.68736 -86.33234 1810 ft 91 kts 121°
2026-05-08 23:55 41.68745 -86.32320 1755 ft 105 kts 80°
2026-05-08 23:56 41.68804 -86.31341 1833 ft 105 kts 79°
2026-05-08 23:56 41.68872 -86.30388 1646 ft 102 kts 83°
2026-05-08 23:56 41.68963 -86.29519 1548 ft 81 kts 69°
2026-05-08 23:56 41.69340 -86.29197 1439 ft 75 kts
2026-05-08 23:57 41.69886 -86.29112 1270 ft 79 kts
2026-05-08 23:57 41.70354 -86.29181 1135 ft 64 kts 323°
2026-05-08 23:57 41.70495 -86.29759 850 ft 74 kts 283°
2026-05-08 23:57 41.70476 -86.30351 768 ft 49 kts 270°
2026-05-08 23:58 41.70469 -86.30802 768 ft 63 kts 269°
2026-05-08 23:58 41.70470 -86.31441 936 ft 68 kts 276°
2026-05-08 23:58 41.70343 -86.32037 1065 ft 77 kts 197°
2026-05-08 23:58 41.70153 -86.31465 1044 ft 90 kts 92°
2026-05-08 23:59 41.70124 -86.30665 998 ft 82 kts 92°
2026-05-08 23:59 41.70081 -86.29957 1027 ft 72 kts 86°
2026-05-08 23:59 41.70369 -86.29647 888 ft 65 kts 323°
2026-05-08 23:59 41.70472 -86.30216 774 ft 60 kts 270°
2026-05-09 00:00 41.70466 -86.30715 770 ft 58 kts 269°